Regional Weather Roundup
Issued by NWS

Home | Current Version | Previous Version | Text Only | Print | Product List | Glossary On
Versions: 1 2 3 4 5 6 7 8 9 10 11 12 13 14 15 16 17 18 19 20 21 22 23 24 25 26 27 28 29 30 31 32 33 34 35 36 37 38 39 40 41 42 43 44 45 46 47 48 49 50
000
ASUS43 KMKX 260411
RWRWI

WISCONSIN REGIONAL WEATHER ROUNDUP
NATIONAL WEATHER SERVICE MILWAUKEE/SULLIVAN WI
1100 PM CDT SUN SEP 25 2016

NOTE: "FAIR" INDICATES FEW OR NO CLOUDS BELOW 12,000 FEET WITH NO
SIGNIFICANT WEATHER AND/OR OBSTRUCTIONS TO VISIBILITY.

WIZ001-002-006>008-014>016-023>028-260500-
NORTHWEST WISCONSIN

CITY           SKY/WX    TMP DP  RH WIND       PRES   REMARKS
SUPERIOR ARPT  CLOUDY    53  50  89 W10       29.81F
ASHLAND        MOCLDY    55  48  77 W13       29.80F
HAYWARD        LGT RAIN  53  50  89 W7        29.86F FOG
SIREN          CLOUDY    53  45  73 W9        29.90S
CUMBERLAND     CLEAR     50  43  76 W14       29.91S
RICE LAKE      CLEAR     53  44  70 W9G21     29.92F
CHETEK         NOT AVBL
LADYSMITH      CLOUDY    55  52  91 W12G17    29.90S
EAU CLAIRE     CLEAR     57  46  66 W13       29.93F
MENOMONIE      PTCLDY    54  53  97 W12G18    29.95S
NEW RICHMOND   CLEAR     51  43  73 W13       29.96S
OSCEOLA        CLEAR     54  43  68 W14       29.98S
$$

WIZ003>005-009-010-017-018-260500-
NORTH CENTRAL WISCONSIN

CITY           SKY/WX    TMP DP  RH WIND       PRES   REMARKS
MANITOWISH WTR NOT AVBL
ARBOR VITAE    LGT RAIN  57  55  95 W7        29.82F
WOODRUFF       LGT RAIN  57  55  95 W7        29.82F
RHINELANDER    CLOUDY    56  54  93 W12       29.84F
EAGLE RIVER    DRIZZLE   55  55  98 W15       29.82S
LAND O LAKES   CLOUDY    57  52  84 W8G17     29.82F
PHILLIPS       CLOUDY    54  52  94 W6        29.85S
TOMAHAWK       RAIN      55  52  89 W6        29.85F
MEDFORD        CLOUDY    54  54 100 W10G16    29.88F
MERRILL        CLOUDY    56  54  91 W13       29.87F
$$

WIZ029-030-035-036-043>047-260500-
CENTRAL WISCONSIN

CITY           SKY/WX    TMP DP  RH WIND       PRES   REMARKS
WAUSAU         LGT RAIN  57  53  86 W22G35    29.87S FOG
MOSINEE        LGT RAIN  55  54  94 W17G25    29.90S
MARSHFIELD     CLOUDY    57  51  80 W13       29.91S
STEVENS POINT  CLOUDY    56  53  88 W12G20    29.90S
WAUPACA        CLOUDY    64  56  75 W12G22    29.88F
WAUTOMA        CLOUDY    62  54  74 W17G29    29.91S
WISC RAPIDS    CLOUDY    57  55  93 W10       29.93S
CAMP DOUGLAS   PTCLDY    58  53  83 W14       29.94F
$$

WIZ011>013-019>022-031-037>040-048>050-260500-
NORTHEAST WISCONSIN

CITY           SKY/WX    TMP DP  RH WIND       PRES   REMARKS
ANTIGO         CLOUDY    56  53  90 W14       29.86S
SHAWANO        CLOUDY    62  56  81 W6        29.85F
OCONTO         NOT AVBL
STURGEON BAY   CLOUDY    63  60  90 W9        29.84F
GREEN BAY      CLOUDY    63  59  87 W8        29.85F
MANITOWOC      CLOUDY    65  58  78 W8        29.87F
APPLETON       MOCLDY    61  54  77 W12       29.86F
CLINTONVILLE   NOT AVBL
OSHKOSH        CLOUDY    63  54  72 SW7       29.88S
$$

WIZ032>034-041-042-053>061-260500-
SOUTHWEST WISCONSIN

CITY           SKY/WX    TMP DP  RH WIND       PRES   REMARKS
LA CROSSE      PTCLDY    61  51  70 W13       29.98R
SPARTA         CLOUDY    59  52  77 W9        29.97S
VIROQUA        CLOUDY    57  51  82 W7        30.00S
BOSCOBEL       CLOUDY    62  52  69 W9        30.01R
PRAIRIE DU CHI MOCLDY    60  49  68 W8G16     30.02S
PLATTEVILLE    CLOUDY    60  53  77 W10G16    30.02S
$$

WIZ056-057-062-063-064-067-068-260500-
SOUTH CENTRAL WISCONSIN

CITY           SKY/WX    TMP DP  RH WIND       PRES   REMARKS
REEDSBURG      NOT AVBL
BARABOO/DELLS  CLOUDY    60  50  70 W12G23    29.96R
LONE ROCK      CLOUDY    62  52  69 W13       29.99R
MINERAL POINT  CLOUDY    61  54  77 W14G22    30.00S
MADISON        CLOUDY    62  53  72 VRB7      29.94F
MIDDLETON      CLOUDY    62  53  74 W14       29.97S
WATERTOWN      CLOUDY    62  55  75 W8        29.93F
MONROE         CLOUDY    61  52  72 W15G21    29.98F
JANESVILLE     CLOUDY    63  54  72 W8        29.96F
$$

WIZ051-052-058>065-066-070>072-260500-
SOUTHEAST WISCONSIN

CITY           SKY/WX    TMP DP  RH WIND       PRES   REMARKS
MILWAUKEE      CLOUDY    67  58  72 W15       29.91S
WAUKESHA       LGT RAIN  59  54  82 W12       29.93S
MILWAUKEE/TIMM DRIZZLE   63  54  72 W13G22    29.92R
RACINE         CLOUDY    65  57  75 W14G21    29.93S
BURLINGTON     CLOUDY    61  53  74 W9        29.94F
KENOSHA        CLOUDY    64  55  72 W14G23    29.93S
FOND DU LAC    CLOUDY    63  55  75 SW9       29.90F
SHEBOYGAN      LGT RAIN  64  57  78 W9        29.88S
WEST BEND      LGT RAIN  61  55  82 W9        29.91S
JUNEAU         CLOUDY    61  53  75 SW12      29.93F
$$

LSZ147-162-260500-
LAKE SUPERIOR

STATION/POSITION TIME  TEMP    WIND        PRES    WAVE
                       AIR SEA DIR/SP/G            HT/PER
                 (UTC) (F)     (DEG/KT/KT) (MB)    (FT/S)
W MID LAKE BUOY  0350   60 60  240/ 23/ 27 1005.3F   4/ 6
DEVILS ISLAND    0400   56     230/ 23/ 27 1007.4F
SAXON HARBOR     0340   60     230/  8/ 17 1008.8F
$$

LMZ867-665-643>646-260500-
LAKE MICHIGAN

STATION/POSITION TIME  TEMP    WIND        PRES    WAVE
                       AIR SEA DIR/SP/G            HT/PER
                 (UTC) (F)     (DEG/KT/KT) (MB)    (FT/S)
CHAMBERS ISLAND  0300   66     210/  4/  8 1009.1F
N MID LAKE BUOY  0350   66 67  190/ 19/ 21 1008.4F   4/ 6
NORTHPORT PIER   0300   67     190/  5/ 22 1009.8R
KEWAUNEE LAKESHO 0300   67     280/  8/ 12 1010.1F
SHEBOYGAN LAKESH 0400   65     280/ 11/ 15 1011.2R
PORT WASHINGTON  0340   66     280/  8/ 15 1012.9R
ATWATER BUOY     0300   66 53  260/ 16/ 21 1012.6R
MILWAUKEE LAKESH 0310   68     280/ 13/ 16   N/A
S MID LAKE BUOY  0350   71 72  270/ 21/ 25 1011.2R   2/ 4
KENOSHA   LAKESH 0400   66     280/ 13/ 21 1012.9S
$$

TC  - TEMPERATURE IN CELSIUS
VSB - VISIBILITY IN STATUTE MILES
WCI - WIND CHILL INDEX
HX  - HEAT INDEX





USA.gov is the U.S. government's official web portal to all federal, state and local government web resources and services.